Waarnemingen

Advertentie
Mijn weer
Valdepena, Spanje (8351): temperatuur & dauwpunt: 03.08.2020 04:00:00 - 09.08.2020 04:00:00 (CEST)Valdepena, Spanje (8351): windsnelheid & windstoten: 03.08.2020 04:00:00 - 09.08.2020 04:00:00 (CEST)Valdepena, Spanje (8351): windrichting: 03.08.2020 04:00:00 - 09.08.2020 04:00:00 (CEST)Valdepena, Spanje (8351): luchtdruk: 03.08.2020 04:00:00 - 09.08.2020 04:00:00 (CEST)Valdepena, Spanje (8351): zicht: 03.08.2020 04:00:00 - 09.08.2020 04:00:00 (CEST)Valdepena, Spanje (8351): Zonneschijnduur: 03.08.2020 04:00:00 - 09.08.2020 04:00:00 (CEST)Valdepena, Spanje (8351): neerslag: 03.08.2020 04:00:00 - 09.08.2020 04:00:00 (CEST)
Datum & Tijd tt [°C] td [°C] ff [km/u] ff [kn] fx [km/u] fx [kn] dd ppp [hPa] vv [km] sd [min] rr [mm]
09.08.2020 04:00:00 27,1 7,0 5 3 13 7 ZZO 1014,1 20 0 0,0
09.08.2020 03:00:00 27,0 7,0 3 2 12 7 N 1014,2 20 0 0,0
09.08.2020 02:00:00 26,9 6,8 5 3 14 8 ONO 1014,5 20 0 -
09.08.2020 01:00:00 26,7 7,7 1 1 11 6 NO 1014,8 20 0 0,0
09.08.2020 00:00:00 28,3 7,6 5 3 16 9 NO 1014,4 20 0 0,0
08.08.2020 23:00:00 29,7 7,6 6 3 21 12 NO 1014,1 20 0 0,0
08.08.2020 22:00:00 31,5 5,8 13 7 29 15 ONO 1013,2 20 0 0,0
08.08.2020 21:00:00 32,3 5,8 7 4 19 10 ONO 1012,3 20 0 0,0
08.08.2020 20:00:00 32,3 10,9 4 2 26 14 N 1012,4 20 0 -
08.08.2020 19:00:00 35,7 4,1 5 3 20 11 NNO 1011,5 20 0 0,0
08.08.2020 18:00:00 36,5 3,6 5 3 24 13 NO 1011,6 20 29 0,0
08.08.2020 17:00:00 36,6 4,8 6 3 21 11 NNO 1012,2 20 28 0,0
08.08.2020 16:00:00 36,3 2,3 6 3 22 12 NNO 1012,9 20 22 0,0
08.08.2020 15:00:00 36,5 3,6 7 4 24 13 WNW 1013,6 19 60 0,0
08.08.2020 14:00:00 34,7 6,1 3 2 12 7 WNW 1014,8 20 10 -
08.08.2020 13:00:00 33,7 7,6 4 2 12 6 ZW 1015,8 20 26 0,0
08.08.2020 12:00:00 33,0 8,4 3 2 14 7 ZZO 1016,6 20 53 0,0
08.08.2020 11:00:00 30,7 9,0 4 2 9 5 ZZW 1017,4 20 60 0,0
08.08.2020 10:00:00 27,9 7,7 3 2 15 8 ZZW 1017,4 20 18 0,0
08.08.2020 09:00:00 24,2 6,8 5 3 11 6 NNO 1018,1 7 1 0,0
08.08.2020 08:00:00 22,7 6,8 5 3 10 6 NNO 1018,3 17 0 -
08.08.2020 07:00:00 23,5 6,7 3 1 7 4 N 1017,6 20 0 0,0
08.08.2020 06:00:00 24,9 6,1 2 1 8 4 ONO 1017,2 20 0 0,0
08.08.2020 05:00:00 25,7 5,3 4 2 9 5 ZO 1017,0 20 0 0,0
08.08.2020 04:00:00 25,8 6,4 4 2 9 5 O 1016,8 20 0 0,0
08.08.2020 03:00:00 27,3 6,1 3 2 10 6 ZZO 1016,4 20 0 0,0
08.08.2020 02:00:00 28,1 6,2 4 2 7 4 O 1016,0 20 0 -
08.08.2020 01:00:00 29,2 5,3 2 1 11 6 O 1015,4 20 0 0,0
08.08.2020 00:00:00 30,6 5,8 6 3 11 6 ZZO 1014,8 20 0 0,0
07.08.2020 23:00:00 32,5 5,9 3 1 13 7 ZW 1013,8 20 0 0,0
07.08.2020 22:00:00 34,2 4,8 4 2 14 8 ZZW 1012,1 20 0 0,0
07.08.2020 21:00:00 36,4 3,6 9 5 24 13 ZZW 1010,9 20 0 0,0
07.08.2020 20:00:00 38,1 3,8 13 7 26 14 Z 1009,9 20 0 -
07.08.2020 19:00:00 39,1 4,5 11 6 26 14 Z 1009,6 20 1 0,0
07.08.2020 18:00:00 38,7 5,3 5 3 15 8 WZW 1009,8 20 49 0,0
07.08.2020 17:00:00 39,4 5,9 8 5 19 11 ZZW 1010,2 20 60 0,0
07.08.2020 16:00:00 38,6 5,3 4 2 17 9 WZW 1011,0 20 60 0,0
07.08.2020 15:00:00 38,8 5,5 6 4 15 8 ONO 1011,6 20 59 0,0
07.08.2020 14:00:00 36,2 6,4 5 3 13 7 ZZW 1012,5 20 60 -
07.08.2020 13:00:00 35,5 8,4 3 2 13 7 ZO 1013,0 20 60 0,0
07.08.2020 12:00:00 33,8 7,7 3 1 13 7 N 1013,8 20 60 0,0
07.08.2020 11:00:00 32,0 7,6 5 3 12 6 N 1014,3 20 60 0,0
07.08.2020 10:00:00 29,1 7,7 4 2 12 6 NNO 1015,1 20 21 0,0
07.08.2020 09:00:00 24,8 8,3 5 3 15 8 NNO 1015,9 20 0 0,0
07.08.2020 08:00:00 24,1 8,1 5 3 13 7 NNO 1015,5 20 0 -
07.08.2020 07:00:00 24,8 7,4 2 1 8 5 ONO 1014,8 20 0 0,0
07.08.2020 06:00:00 25,7 7,3 5 3 11 6 ZZO 1014,4 20 0 0,0
07.08.2020 05:00:00 26,6 8,1 2 1 10 6 OZO 1013,8 20 0 0,0
07.08.2020 04:00:00 27,7 8,0 4 2 15 8 ZO 1013,1 20 0 0,0
07.08.2020 03:00:00 28,2 8,5 5 3 13 7 ZO 1012,9 20 0 0,0
07.08.2020 02:00:00 28,1 8,9 5 3 13 7 O 1012,9 20 0 -
07.08.2020 01:00:00 28,5 9,7 3 2 10 5 NO 1012,6 20 0 0,0
07.08.2020 00:00:00 30,5 9,4 4 2 15 8 ONO 1011,5 20 0 0,0
06.08.2020 23:00:00 32,0 5,5 7 4 16 9 ONO 1010,5 20 0 0,0
06.08.2020 22:00:00 33,8 7,0 1 1 8 4 N 1009,0 20 0 0,0
06.08.2020 21:00:00 36,2 4,5 3 1 11 6 WZW 1008,0 20 0 0,0
06.08.2020 20:00:00 37,5 3,2 4 2 14 7 ZZO 1007,4 20 1 -
06.08.2020 19:00:00 37,7 3,4 4 2 15 8 OZO 1007,3 20 1 0,0
06.08.2020 18:00:00 38,4 3,9 8 4 24 13 Z 1007,3 20 60 0,0
06.08.2020 17:00:00 38,4 5,1 8 5 20 11 ZZO 1007,6 20 60 0,0
06.08.2020 16:00:00 38,4 5,1 5 3 21 11 N 1007,8 20 60 0,0
06.08.2020 15:00:00 38,0 5,9 4 2 18 10 Z 1008,4 20 60 0,0
06.08.2020 14:00:00 37,1 7,1 6 3 15 8 NNO 1009,3 20 60 -
06.08.2020 13:00:00 35,8 7,8 5 3 14 8 NNO 1009,9 20 60 0,0
06.08.2020 12:00:00 33,9 7,8 4 2 10 6 NNW 1010,6 20 60 0,0
06.08.2020 11:00:00 32,2 7,8 3 1 8 5 N 1011,0 20 60 0,0
06.08.2020 10:00:00 29,8 8,3 2 1 9 5 ONO 1011,5 20 22 0,0
06.08.2020 09:00:00 25,4 9,3 1 1 6 3 NNO 1012,2 20 5 0,0
06.08.2020 08:00:00 24,9 8,8 3 1 12 6 Z 1011,9 19 0 -
06.08.2020 07:00:00 24,9 8,4 2 1 10 5 ZZO 1011,6 20 0 0,0
06.08.2020 06:00:00 25,2 8,7 3 1 8 4 OZO 1011,0 20 0 0,0
06.08.2020 05:00:00 26,3 8,8 3 2 12 6 ZO 1010,5 20 0 0,0
06.08.2020 04:00:00 27,0 8,9 3 2 10 6 ZZO 1010,0 20 0 0,0
06.08.2020 03:00:00 27,6 9,4 3 1 14 8 ZZW 1009,7 20 0 0,0
06.08.2020 02:00:00 28,0 11,1 5 3 21 12 ONO 1009,3 20 0 -
06.08.2020 01:00:00 28,6 12,4 8 4 24 13 ONO 1009,2 20 0 0,0
06.08.2020 00:00:00 29,5 10,6 9 5 20 11 NO 1008,8 20 0 0,0
05.08.2020 23:00:00 31,4 6,4 5 3 13 7 NO 1008,2 20 0 0,0
05.08.2020 22:00:00 32,4 7,3 2 1 6 4 NNO 1007,3 20 0 0,0
05.08.2020 21:00:00 34,3 6,5 1 1 6 3 ONO 1006,3 20 0 0,0
05.08.2020 20:00:00 35,1 6,4 3 2 12 7 WZW 1005,8 20 0 -
05.08.2020 19:00:00 35,3 5,6 5 3 17 9 NO 1005,6 20 2 0,0
05.08.2020 18:00:00 36,2 6,4 7 4 18 10 NNO 1005,6 20 53 0,0
05.08.2020 17:00:00 36,2 6,4 4 2 14 8 N 1005,8 20 56 0,0
05.08.2020 16:00:00 35,8 7,0 4 2 15 8 NNO 1006,6 20 39 0,0
05.08.2020 15:00:00 33,8 7,7 6 3 18 10 W 1007,4 20 24 0,0
05.08.2020 14:00:00 34,3 8,8 4 2 15 8 OZO 1007,9 20 37 -
05.08.2020 13:00:00 34,2 9,4 5 3 19 10 ZW 1008,2 20 60 0,0
05.08.2020 12:00:00 32,2 9,7 5 3 16 9 ZZW 1009,1 20 60 0,0
05.08.2020 11:00:00 30,4 10,9 8 4 17 9 Z 1009,6 20 60 0,0
05.08.2020 10:00:00 27,7 12,1 7 4 18 10 ZZO 1010,2 20 20 0,0
05.08.2020 09:00:00 24,4 12,3 6 4 18 10 ZO 1010,8 20 4 0,0
05.08.2020 08:00:00 20,9 9,8 2 1 9 5 N 1011,7 20 0 -
05.08.2020 07:00:00 20,6 9,6 3 2 16 9 NNO 1011,4 20 0 0,0
05.08.2020 06:00:00 20,8 7,4 7 4 13 7 NNO 1011,0 20 0 0,0
05.08.2020 05:00:00 22,1 5,5 4 2 13 7 NNO 1010,7 20 0 0,0
05.08.2020 04:00:00 22,4 4,5 5 3 18 10 WNW 1010,6 20 0 0,0
05.08.2020 03:00:00 23,3 3,8 1 1 14 7 ZW 1010,7 20 0 0,0
05.08.2020 02:00:00 24,1 3,9 1 1 13 7 NNO 1011,2 20 0 -
05.08.2020 01:00:00 26,0 3,8 4 2 17 9 NO 1010,4 20 0 0,0
05.08.2020 00:00:00 26,6 3,8 5 3 11 6 NO 1009,9 20 0 0,0
04.08.2020 23:00:00 28,2 4,5 5 3 11 6 NO 1009,4 20 0 0,0
04.08.2020 22:00:00 29,7 5,0 4 2 13 7 NO 1008,7 20 0 0,0
04.08.2020 21:00:00 31,6 5,1 5 3 20 11 N 1007,9 20 7 0,0
04.08.2020 20:00:00 32,8 4,5 6 3 18 10 NNW 1007,4 20 0 -
04.08.2020 19:00:00 33,0 5,5 4 2 19 10 NNW 1007,2 20 0 0,0
04.08.2020 18:00:00 33,0 6,2 6 3 22 12 W 1007,5 20 58 0,0
04.08.2020 17:00:00 33,0 7,0 7 4 22 12 W 1007,8 20 45 0,0
04.08.2020 16:00:00 33,1 7,1 6 3 16 9 ZZW 1008,3 20 34 0,0
04.08.2020 15:00:00 33,5 6,7 4 2 16 9 ZW 1008,5 20 60 0,0
04.08.2020 14:00:00 32,2 8,4 5 3 16 8 ZZO 1009,5 20 60 -
04.08.2020 13:00:00 30,9 10,8 3 2 13 7 NNO 1010,3 20 60 0,0
04.08.2020 12:00:00 29,4 11,9 3 2 11 6 NW 1010,9 20 60 0,0
04.08.2020 11:00:00 26,0 12,4 4 2 11 6 WNW 1011,9 20 60 0,0
04.08.2020 10:00:00 23,5 11,2 3 2 8 4 N 1012,7 20 20 0,0
04.08.2020 09:00:00 20,0 7,0 3 2 7 4 OZO 1013,5 20 6 0,0
04.08.2020 08:00:00 19,0 11,6 6 3 17 9 N 1013,5 20 0 -
04.08.2020 07:00:00 19,1 10,2 4 2 14 7 N 1013,0 20 0 0,0
04.08.2020 06:00:00 19,6 7,3 5 3 16 8 NNW 1012,7 20 0 0,0
04.08.2020 05:00:00 20,4 2,7 4 2 8 4 N 1012,6 20 0 0,0
04.08.2020 04:00:00 21,9 3,0 1 1 7 4 Z 1012,1 20 0 0,0
04.08.2020 03:00:00 21,9 3,0 2 1 10 5 OZO 1012,2 20 0 0,0
04.08.2020 02:00:00 23,4 3,4 1 1 10 5 N 1011,6 20 0 -
04.08.2020 01:00:00 24,8 2,9 3 2 9 5 NO 1011,2 20 0 0,0
04.08.2020 00:00:00 26,3 2,9 3 1 8 4 NNO 1010,9 20 0 0,0
03.08.2020 23:00:00 27,7 3,4 4 2 13 7 NNO 1010,3 20 0 0,0
03.08.2020 22:00:00 29,5 2,7 5 3 14 8 N 1009,3 20 0 0,0
03.08.2020 21:00:00 30,8 2,9 7 4 18 10 N 1008,4 20 5 0,0
03.08.2020 20:00:00 31,8 2,9 5 3 20 11 N 1008,1 20 0 -
03.08.2020 19:00:00 32,0 3,0 5 3 27 15 WNW 1008,2 20 2 0,0
03.08.2020 18:00:00 31,9 2,9 8 5 24 13 NW 1008,4 20 55 0,0
03.08.2020 17:00:00 32,1 3,0 9 5 24 13 NW 1008,6 20 60 0,0
03.08.2020 16:00:00 32,0 3,9 7 4 26 14 NW 1009,1 20 60 0,0
03.08.2020 15:00:00 31,5 5,1 13 7 27 15 NNW 1009,8 20 60 0,0
03.08.2020 14:00:00 31,0 5,5 10 5 29 16 N 1010,6 20 60 -
03.08.2020 13:00:00 30,0 5,9 11 6 27 14 N 1011,2 20 60 0,0
03.08.2020 12:00:00 28,2 6,8 10 5 22 12 N 1012,0 20 60 0,0
03.08.2020 11:00:00 25,0 8,5 8 4 14 8 NNW 1012,5 20 60 0,0
03.08.2020 10:00:00 23,7 8,5 5 3 15 8 NNW 1012,8 20 20 0,0
03.08.2020 09:00:00 22,3 8,0 6 3 14 8 NNW 1013,1 20 0 0,0
03.08.2020 08:00:00 21,0 6,8 1 1 6 3 ZW 1012,9 20 0 -
03.08.2020 07:00:00 22,1 7,4 2 1 12 7 NNW 1012,4 20 0 0,0
03.08.2020 06:00:00 22,0 7,0 4 2 12 6 NW 1012,5 20 0 0,0
03.08.2020 05:00:00 22,6 5,5 4 2 8 4 NW 1012,5 20 0 0,0
03.08.2020 04:00:00 23,5 3,4 1 1 8 4 ZW 1011,9 20 0 0,0

tt = temperatuur
td = dauwpunt
ff = windsnelheid
fx = windstoten
dd = windrichting
ppp = luchtdruk
vv = zicht
sd = Zonneschijnduur
rr = neerslag

Weerstations in de omgeving